Baton Rouge, LA

7:01 AM CST on February 14, 2016 (GMT -0600)
Baton Rouge Metro-Ryan

Weather History for KBTR - January, 2013

Change the Weather History Date:

Wednesday, January 2, 2013

  Actual Average Record
Temperature  
Mean Temperature 44 °F 52 °F  
Max Temperature 48 °F 62 °F 83 °F (1941)
Min Temperature 40 °F 41 °F 19 °F (1928)
Degree Days  
Heating Degree Days 21 14  
Month to date heating degree days 29 28  
Since 1 July heating degree days 606 644  
Cooling Degree Days 0 1  
Month to date cooling degree days 0 2  
Year to date cooling degree days 0 2  
Moisture  
Dew Point 40 °F    
Average Humidity 86    
Maximum Humidity 96    
Minimum Humidity 76    
Precipitation  
Precipitation 0.04 in 0.17 in 2.45 in (1911)
Month to date precipitation 1.50 0.34  
Year to date precipitation 1.50 0.34  
Snow  
Snow 0.00 in - - ()
Month to date snowfall  
Since 1 July snowfall 0.0  
Snow Depth 0.00 in    
Sea Level Pressure  
Sea Level Pressure 30.19 in    
Wind  
Wind Speed 5 mph (North)    
Max Wind Speed 13 mph    
Max Gust Speed 21 mph    
Visibility 10 miles    
Events Rain    
T = Trace of Precipitation, MM = Missing Value Source: NWS Daily Summary

Daily Weather History Graph

Daily Weather History Graph

Search for Another Location

Airport or City:

Trip Planner

Search our weather history database for the weather conditions in past years. The results will help you decide how hot, cold, wet, or windy it might be!

Date:

Astronomy

Jan. 02, 2013 Rise Set
Actual Time 7:02 AM CST 5:15 PM CST
Civil Twilight 6:35 AM CST 5:42 PM CST
Nautical Twilight 6:05 AM CST 6:12 PM CST
Astronomical Twilight 5:36 AM CST 6:41 PM CST
Moon 10:23 PM CST (1/2) 10:06 AM CST (1/2)
Length of Visible Light 11h 06m
Length of Day
10h 13m
Waning Gibbous, 75% of the Moon is Illuminated
Jan 2
Waning Gibbous
Jan 4
Last Quarter
Jan 11
New
Jan 18
First Quarter
Jan 26
Full

Hourly Weather History & Observations

Time (CST) Temp. Windchill Dew Point Humidity Pressure Visibility Wind Dir Wind Speed Gust Speed Precip Events Conditions
12:07 AM 48.2 °F - 46.4 °F 93% 30.11 in 10.0 mi North 6.9 mph - N/A   Overcast
12:53 AM 46.9 °F - 45.0 °F 93% 30.12 in 10.0 mi Variable 4.6 mph - N/A   Overcast
1:53 AM 46.0 °F 42.5 °F 43.0 °F 89% 30.12 in 10.0 mi Variable 6.9 mph 18.4 mph N/A   Overcast
2:53 AM 45.0 °F 41.2 °F 42.1 °F 90% 30.13 in 10.0 mi North 6.9 mph - N/A   Overcast
3:53 AM 44.1 °F 40.8 °F 41.0 °F 89% 30.12 in 10.0 mi North 5.8 mph - N/A   Overcast
4:41 AM 44.6 °F 40.7 °F 41.0 °F 87% 30.14 in 10.0 mi North 6.9 mph - N/A   Overcast
4:53 AM 44.1 °F 40.8 °F 41.0 °F 89% 30.15 in 10.0 mi North 5.8 mph - N/A   Overcast
5:53 AM 43.0 °F 40.3 °F 41.0 °F 93% 30.14 in 10.0 mi NNE 4.6 mph - N/A   Overcast
6:53 AM 43.0 °F 40.3 °F 39.9 °F 89% 30.17 in 10.0 mi North 4.6 mph - N/A   Overcast
7:21 AM 42.8 °F 39.3 °F 39.2 °F 87% 30.18 in 10.0 mi Variable 5.8 mph - N/A   Overcast
7:53 AM 43.0 °F 38.2 °F 37.9 °F 82% 30.18 in 10.0 mi North 8.1 mph 20.7 mph N/A   Overcast
8:06 AM 42.8 °F 40.1 °F 39.2 °F 87% 30.21 in 10.0 mi Variable 4.6 mph - N/A   Scattered Clouds
8:23 AM 44.6 °F 41.4 °F 39.2 °F 81% 30.21 in 10.0 mi Variable 5.8 mph - N/A   Mostly Cloudy
8:53 AM 44.1 °F 40.8 °F 39.0 °F 82% 30.22 in 10.0 mi North 5.8 mph - N/A   Overcast
9:53 AM 45.0 °F 40.6 °F 39.0 °F 80% 30.22 in 10.0 mi NNE 8.1 mph - N/A   Scattered Clouds
10:12 AM 44.6 °F 42.2 °F 39.2 °F 81% 30.22 in 10.0 mi North 4.6 mph - N/A   Mostly Cloudy
10:53 AM 45.0 °F 41.2 °F 39.0 °F 80% 30.22 in 10.0 mi North 6.9 mph - N/A   Overcast
11:53 AM 46.0 °F 44.8 °F 39.0 °F 76% 30.19 in 10.0 mi Variable 3.5 mph - 0.00 in   Overcast
12:00 PM 46.4 °F 42.4 °F 39.2 °F 76% 30.18 in 10.0 mi North 8.1 mph - N/A   Overcast
12:53 PM 45.0 °F 41.8 °F 39.9 °F 82% 30.16 in 10.0 mi North 5.8 mph - 0.00 in Rain Light Rain
1:53 PM 45.0 °F 42.6 °F 39.9 °F 82% 30.15 in 10.0 mi NNW 4.6 mph - 0.00 in Rain Light Rain
2:04 PM 44.6 °F 42.2 °F 39.2 °F 81% 30.16 in 10.0 mi NW 4.6 mph - 0.00 in   Overcast
2:51 PM 44.6 °F 41.4 °F 39.2 °F 81% 30.19 in 10.0 mi NNW 5.8 mph - 0.00 in   Overcast
2:52 PM 45.0 °F 41.8 °F 39.0 °F 80% 30.19 in 10.0 mi NNW 5.8 mph - 0.00 in   Overcast
3:53 PM 45.0 °F 42.6 °F 39.9 °F 82% 30.19 in 10.0 mi North 4.6 mph - 0.00 in Rain Light Rain
4:53 PM 45.0 °F 43.5 °F 39.0 °F 80% 30.20 in 10.0 mi NNE 3.5 mph - 0.00 in   Overcast
5:21 PM 44.6 °F 40.7 °F 39.2 °F 81% 30.22 in 10.0 mi NNW 6.9 mph - N/A Rain Light Rain
5:37 PM 42.8 °F 40.1 °F 39.2 °F 87% 30.19 in 10.0 mi North 4.6 mph - 0.01 in Rain Light Rain
5:53 PM 43.0 °F 39.5 °F 39.9 °F 89% 30.19 in 10.0 mi North 5.8 mph - 0.01 in Rain Light Rain
6:53 PM 42.1 °F 38.4 °F 39.9 °F 92% 30.24 in 10.0 mi NW 5.8 mph - 0.02 in Rain Light Rain
7:53 PM 41.0 °F 36.4 °F 37.9 °F 89% 30.22 in 10.0 mi North 6.9 mph - 0.00 in Rain Light Rain
8:53 PM 39.9 °F 35.8 °F 37.0 °F 89% 30.25 in 10.0 mi NW 5.8 mph - 0.00 in Rain Light Rain
10:53 PM 39.9 °F 37.8 °F 36.0 °F 86% 30.27 in 10.0 mi NNW 3.5 mph - 0.00 in   Overcast
11:53 PM 39.9 °F 36.7 °F 35.1 °F 83% 30.27 in 10.0 mi NNW 4.6 mph - N/A   Overcast